Regional Weather Roundup
Issued by NWS

Home | Current Version | Previous Version | Text Only | Print | Product List | Glossary Off
Versions: 1 2 3 4 5 6 7 8 9 10 11 12 13 14 15 16 17 18 19 20 21 22 23 24 25 26 27 28 29 30 31 32 33 34 35 36 37 38 39 40 41 42 43 44 45 46 47 48 49 50

983
ASUS45 KBOU 121207
RWRCO

WEATHER ROUNDUP FOR COLORADO
NATIONAL WEATHER SERVICE DENVER/BOULDER CO
500 AM MST FRI FEB 12 2016

NOTE: "FAIR" INDICATES FEW OR NO CLOUDS BELOW 12000 FEET WITH NO
SIGNIFICANT WEATHER AND/OR OBSTRUCTIONS TO VISIBILITY.

COZ001>005-013-030-031-121300-
...NORTHWEST COLORADO...

CITY           SKY/WX    TMP DP  RH WIND       PRES   REMARKS
CRAIG          CLOUDY     5   0  79 CALM      30.42S
HAYDEN         CLOUDY    21  12  68 SE12      30.41R WCI   9
MEEKER         CLOUDY    15  10  80 N3        30.41S
MOUNT WERNER   NOT AVBL
STEAMBOAT SPGS CLOUDY    17  13  84 CALM      30.42S
WALDEN         CLOUDY    25  14  63 SE6       30.39S WCI  18
$$

COZ006>008-011-121300-
...WEST CENTRAL VALLEYS...

CITY           SKY/WX    TMP DP  RH WIND       PRES   REMARKS
GRAND JUNCTION CLOUDY    23  21  92 E5        30.42S WCI  17
MONTROSE       CLOUDY    23  16  74 S8        30.45S WCI  14
EAGLE          CLOUDY    16  16 100 E3        30.49S
RIFLE          CLOUDY    18  12  77 E5        30.45R WCI  11
DELTA          CLOUDY    29  22  76 E5        30.44S WCI  24
NUCLA          CLOUDY    27  21  80 SE5       30.46S WCI  21
$$

COZ017>023-064>068-121300-
...SOUTHWEST COLORADO...

CITY           SKY/WX    TMP DP  RH WIND       PRES   REMARKS
DURANGO        CLOUDY    17  13  84 NE5       30.42R WCI  10
CORTEZ         CLOUDY    20  15  81 CALM      30.41S
PAGOSA SPRINGS CLOUDY    19  14  82 CALM      30.44S
TELLURIDE      CLOUDY    32  10  40 SE6       30.49F WCI  26
WOLF CREEK PAS CLOUDY    30   5  34 SW8       30.57S WCI  23
$$

COZ009-010-012-014-032>034-037-058>063-121300-
...CENTRAL COLORADO...

CITY           SKY/WX    TMP DP  RH WIND       PRES   REMARKS
ASPEN          CLOUDY    21  12  68 S7        30.42S WCI  12
BUENA VISTA    CLOUDY    25  19  77 CALM      30.42R
COPPER MTN     CLOUDY    28  16  59 W17G23    30.49S WCI  16
BERTHOUD PASS  FAIR      21  10  63 NW38G47   30.43R WCI   1
COTTONWOOD PAS CLOUDY    36  14  41 S5        30.43S
GUNNISON       CLOUDY    -6 -29  31 CALM      30.56R
KREMMLING      CLOUDY     1  -4  78 CALM      30.48S
LEADVILLE      CLOUDY    19  12  74 VRB3      30.44R
MONARCH PASS   CLOUDY    23   9  54 MISG      30.59S
SALIDA         NOT AVBL
SUNLIGHT       CLOUDY    32  12  43 CALM        N/A
WILKERSON PASS CLOUDY    30  16  55 SW5       30.48F WCI  25
$$

COZ069>075-121300-
...SAN LUIS VALLEY/SANGRE DE CRISTO MOUNTAINS...

CITY           SKY/WX    TMP DP  RH WIND       PRES   REMARKS
ALAMOSA        CLOUDY    22  17  81 W3        30.43R
LA VETA PASS   CLOUDY    32   9  37 MISG      30.43R
SAGUACHE       CLOUDY    27  14  59 NW16      30.44R WCI  14
$$

COZ035-036-038>040-121300-
...NORTHERN COLORADO FRONT RANGE...

CITY           SKY/WX    TMP DP  RH WIND       PRES   REMARKS
DENVER INTL AP CLOUDY    33  24  69 SW9       30.25F WCI  25
DMNS CITY PARK   N/A     35  25  67 SE13      30.26S WCI  26
AURORA         PTCLDY    33  24  70 SW7       30.26F WCI  27
FRONT RANGE AP NOT AVBL
ERIE MUNI ARPT CLOUDY    29  27  92 CALM      30.26S
BOULDER MUN AP CLOUDY    34  27  75 CALM      30.26S
CENTENNIAL     CLOUDY    35  24  64 SW3       30.26S
BROOMFIELD     CLOUDY    36  27  69 N7        30.25F
FORT COLLINS   CLOUDY    32  23  69 NE7       30.28S WCI  26
LONGMONT       CLOUDY    31  26  80 CALM      30.29R
$$

COZ041-046-047-076>085-087-088-121300-
...PIKES PEAK/PALMER DIVIDE AND SOUTHERN FOOTHILLS...

CITY           SKY/WX    TMP DP  RH WIND       PRES   REMARKS
COLO. SPRINGS  CLOUDY    29  21  72 NE8       30.31F WCI  21
A. F. ACADEMY  CLEAR     26  21  80 N8        30.31S WCI  18
SCHRIEVER AFB  FAIR      30  22  73 SW2       30.32R
ELLICOTT       CLOUDY   N/A N/A N/A N5        30.31R
FALCON         CLOUDY    29  19  66 NW7       30.33R WCI  22
FORT CARSON    MOCLDY    32  23  71 NW12      30.29S WCI  23
LIMON          CLOUDY    19  17  92 CALM      30.30S
MONUMENT HILL  CLOUDY    34  21  60 SW10      30.32S WCI  26
TRINIDAD       CLOUDY    35  21  56 SW14      30.32S WCI  26
$$

COZ042>045-048>051-090-091-121300-
...NORTHEAST COLORADO...

CITY           SKY/WX    TMP DP  RH WIND       PRES   REMARKS
GREELEY ARPT     N/A     28  25  86 N5        30.28F WCI  23
AKRON          CLOUDY    35  26  69 SW10      30.28R WCI  27
BURLINGTON     CLOUDY    32  26  78 W8        30.30R WCI  25
WRAY           NOT AVBL
STERLING       CLOUDY    28  27  93 S5        30.28R WCI  23
HOLYOKE        CLEAR     32  28  86 W6        30.29R WCI  26
FORT MORGAN    CLOUDY    30  25  82 CALM      30.29S
$$

COZ086-089-092>099-121300-
...SOUTHEAST COLORADO...

CITY           SKY/WX    TMP DP  RH WIND       PRES   REMARKS
PUEBLO         CLOUDY    29  23  78 CALM      30.30S
LA JUNTA       CLOUDY    31  25  78 W8        30.30F WCI  23
LAMAR          CLOUDY    27  25  92 SW8       30.30S WCI  19
SPRINGFIELD      N/A     27  22  81 W10       30.31R WCI  17
$$




USA.gov is the U.S. government's official web portal to all federal, state and local government web resources and services.